Location: Harwich
(41.6860°N, 70.0760°W)
Time: 01:35:58
(UTC-05:00)

Daily predictions for brighter satellites

Satellite Brightness Start Highest point End
(mag) Time Altitude Azimuth Time Altitude Azimuth Time Altitude Azimuth
Cosmos 2237 Rocket 3.9 03:57:44 21° N 03:57:44 21° N 03:59:43 10° NNE
CZ-4B DEB 4.3 03:49:31 10° NNE 03:55:06 75° ESE 03:55:12 75° ESE
Hubble Space Telescope 3.6 04:00:30 11° SSE 04:00:30 11° SSE 04:01:04 10° SSE
Cosmos 2333 Rocket 4.3 04:06:33 14° N 04:06:33 14° N 04:07:35 10° N
DELTA 2 R/B (1) 3.6 04:07:47 71° S 04:07:47 71° S 04:13:14 10° ESE
Cosmos 2219 Rocket 4.4 04:20:20 11° N 04:20:20 11° N 04:20:30 10° N
Meteor 2-3 Rocket 4.0 04:11:35 10° S 04:17:19 70° E 04:23:00 10° NNE
Atlas Centaur 2 3.9 04:16:10 29° SW 04:18:20 33° S 04:25:39 10° SE
SL-08 R/B 4.4 04:19:44 25° NNW 04:23:34 64° W 04:29:50 10° S
Lacrosse 5 rocket 1.5 04:23:56 84° S 04:24:03 86° SE 04:28:44 10° NE
Okean-O 4.0 04:19:58 10° NNE 04:24:08 39° E 04:28:17 10° SSE
SL-16 R/B 2.2 04:29:36 56° W 04:29:58 57° WNW 04:35:35 10° NNE
Cosmos 1992 Rocket 3.9 04:26:51 10° SSW 04:32:04 86° ESE 04:37:20 10° NNE
NOSS 3-1 (C) 4.3 04:26:35 20° NNW 04:32:08 67° NE 04:40:31 10° SE
Cosmos 2123 Rocket 3.9 04:26:43 10° SSW 04:32:50 60° W 04:39:04 10° N
Cosmos 1725 Rocket 3.9 04:27:56 10° NNW 04:34:01 61° W 04:40:04 10° S
Cosmos 1603 4.4 04:29:30 10° S 04:34:59 55° ESE 04:40:31 10° NNE
DEBRIS 2.6 04:38:24 64° ESE 04:38:24 64° ESE 04:40:18 10° ESE
Cosmos 1606 3.9 04:34:38 11° N 04:38:12 43° ENE 04:41:51 10° SSE
NOAA 6 4.2 04:40:36 10° NNE 04:45:44 72° ESE 04:50:50 10° S
Cosmos 1782 3.3 04:45:48 10° N 04:49:44 59° E 04:53:38 10° SSE
CZ-4B R/B 3.6 04:45:08 10° N 04:50:26 42° WNW 04:55:42 10° SW
Meteor 1-26 Rocket 4.3 04:48:03 22° NNW 04:51:26 49° W 04:56:50 10° SSW
CZ-2C R/B 3.8 04:46:58 10° NNE 04:51:52 41° E 04:56:38 10° SSE
Cosmos 1503 Rocket 4.2 04:51:37 38° WNW 04:52:47 44° WSW 04:57:39 10° S
CZ-2C R/B 3.8 04:48:41 10° S 04:53:02 49° W 04:54:19 37° NW
USA 229 DEB 3.9 04:49:12 27° NW 04:53:08 57° WSW 05:00:16 10° SSE
USA 229 3.9 04:49:16 27° NW 04:53:13 57° WSW 05:00:22 10° SSE
Cosmos 2297 4.3 04:54:23 33° W 04:54:59 34° WSW 05:00:02 10° SSW
Cosmos 2369 Rocket 3.1 04:49:46 10° NNW 04:55:09 46° ENE 05:00:30 10° SE
COSMO-SKYMED 1 2.5 04:51:06 10° SSE 04:55:26 86° ENE 04:59:49 10° NNW
Cosmos 1447 Rocket 4.4 04:49:24 10° SSW 04:55:43 73° W 05:02:01 10° N
NOSS 3-1 (A) 4.3 04:49:47 14° NNW 04:56:37 69° NE 05:05:01 10° SE
Cosmos 2084 Rocket 3.3 04:57:55 47° W 04:58:28 51° WSW 05:02:13 10° SSE
Cosmos 1408 2.5 04:56:02 10° S 04:59:46 85° W 05:03:31 10° N
PAYLOAD A 4.3 04:57:58 10° NNE 05:03:13 76° ESE 05:08:36 10° S
Cosmos 968 Rocket 3.4 04:59:38 10° NNW 05:04:54 87° WSW 05:10:10 10° SSE
SL-8 R/B 3.9 05:01:31 18° SW 05:05:01 72° SSE 05:09:47 10° ENE
IDEFIX/ARIANE 42P 2.7 05:01:54 10° NNE 05:07:07 76° ESE 05:12:17 10° S
Cosmos 405 Rocket 3.2 05:04:23 10° N 05:08:03 57° E 05:11:44 10° SSE
PSLV R/B 3.3 05:11:52 33° WSW 05:13:05 65° S 05:16:14 10° E
MTI 4.5 05:13:36 10° SSW 05:16:29 31° W 05:16:33 31° W
Meteor 1-28 Rocket 4.4 05:15:11 10° SSW 05:17:46 23° WSW 05:17:46 23° WSW
Cosmos 1862 3.6 05:18:57 10° S 05:22:52 69° E 05:26:50 10° NNE
Lacrosse 4 Rocket 4.2 05:19:43 10° SSE 05:23:10 23° ESE 05:26:35 10° NE
EO 1 Del DPAF 3.8 05:22:42 10° SSW 05:26:15 36° W 05:29:32 12° NNW
USA 215 4.1 05:20:34 10° NE 05:26:56 53° SE 05:33:17 10° SSW
Cosmos 1464 Rocket 4.0 05:22:00 10° N 05:28:18 86° W 05:34:38 10° S
Meteor 2-6 Rocket 4.3 05:24:40 10° NNW 05:30:29 67° W 05:36:22 10° S
Okean 1-7 3.2 05:28:56 10° NNW 05:33:13 53° W 05:37:26 10° S
Cosmos 1943 Rocket 2.8 05:28:02 10° NNW 05:33:40 59° ENE 05:39:15 10° SE
MSX 3.9 05:32:19 10° NNE 05:38:08 88° ESE 05:43:54 10° SSW
Cosmos 1943 3.2 05:33:21 10° SSW 05:39:03 84° WNW 05:44:47 10° NNE
Hubble Space Telescope 3.3 05:38:17 10° SSW 05:39:54 12° S 05:41:32 10° SSE
Aureole 3 2.8 05:41:11 10° S 05:44:17 73° E 05:47:16 10° NNE
CZ-4 R/B 3.2 05:41:21 10° NNE 05:44:58 35° E 05:48:38 10° SSE
Cosmos 1733 Rocket 3.6 05:42:25 10° S 05:46:42 64° E 05:51:01 10° NNE
ATLAS 5 CENTAUR R/B 1.7 05:44:10 10° SW 05:48:44 79° NW 05:53:46 10° NNE
Cosmos 1825 3.4 05:48:26 10° SW 05:51:23 21° WNW 05:54:21 10° NNW
Abrixas rocket 3.5 05:49:49 11° NW 05:52:31 29° NNE 05:55:23 10° ENE
DELTA 2 R/B (1) 4.4 05:48:34 10° W 05:53:48 41° SSW 05:59:00 10° SE
Cosmos 2263 4.3 05:48:15 10° NNW 05:54:01 84° WSW 05:59:48 10° SSE
BREEZE-M DEB (TANK) 3.4 05:50:45 11° WNW 05:54:02 56° NNE 05:58:47 10° E
Meteor 1-27 Rocket 3.8 05:50:05 10° NNW 05:55:53 64° W 06:01:32 10° S
SJ-7 4.5 05:53:06 10° NNE 05:57:08 83° ESE 06:01:07 10° S
USA 267 4.3 05:52:45 10° E 05:58:39 38° NNE 06:04:33 10° NW
Cosmos 2221 Rocket 4.4 05:55:10 10° NNW 05:59:05 31° W 06:03:02 10° SSW
Okean-O 3.9 05:57:05 10° NNW 06:00:21 20° WNW 06:03:36 10° WSW
Lacrosse 5 rocket 2.9 06:00:10 10° W 06:03:51 23° NNW 06:07:33 10° NNE
SJ-12 4.2 06:00:33 10° N 06:04:30 46° WNW 06:08:25 10° SW
Genesis I 3.2 06:03:33 10° SW 06:07:25 84° WNW 06:11:24 10° NNE
Cosmos 1484 Rocket 2.8 06:04:15 10° N 06:08:17 77° WNW 06:12:17 10° SSW
